HK36E TTPP-SVMI

Flight info

Callsign HK36E
Flight time 1h 31m
Altitude 26000
Route POS A563 MEGIR A552 CBC KORLI
Aircraft BE20/M-SDFGRWY/LB1

Departure

Time 2026-04-27 18:31
Airport Piarco International Airport (TTPP)

Arrival

Time 2026-04-27 20:03
Airport Maiquetía Simón Bolívar International Airport (SVMI)
Time Latitude Longitude Altitude Speed Heading
2026-04-27 18:18 10.59313 -61.34135 11 ft 0 kts 120°
2026-04-27 18:26 10.59310 -61.34128 38 ft 1 kts 105°
2026-04-27 18:26 10.59334 -61.34122 38 ft 3 kts 352°
2026-04-27 18:26 10.59381 -61.34136 38 ft 8 kts 305°
2026-04-27 18:26 10.59385 -61.34186 38 ft 11 kts 269°
2026-04-27 18:27 10.59384 -61.34262 37 ft 13 kts 270°
2026-04-27 18:27 10.59384 -61.34346 36 ft 11 kts 270°
2026-04-27 18:27 10.59386 -61.34421 36 ft 9 kts 271°
2026-04-27 18:27 10.59387 -61.34491 35 ft 13 kts 270°
2026-04-27 18:28 10.59399 -61.34560 35 ft 9 kts 289°
2026-04-27 18:28 10.59409 -61.34620 34 ft 5 kts 269°
2026-04-27 18:28 10.59399 -61.34700 33 ft 12 kts 254°
2026-04-27 18:28 10.59366 -61.34812 32 ft 21 kts 251°
2026-04-27 18:29 10.59351 -61.34898 31 ft 14 kts 269°
2026-04-27 18:29 10.59352 -61.34996 30 ft 15 kts 270°
2026-04-27 18:29 10.59352 -61.35080 29 ft 9 kts 270°
2026-04-27 18:29 10.59352 -61.35140 28 ft 9 kts 271°
2026-04-27 18:30 10.59422 -61.35193 28 ft 12 kts
2026-04-27 18:30 10.59489 -61.35177 28 ft 15 kts 40°
2026-04-27 18:30 10.59532 -61.35087 29 ft 19 kts 91°
2026-04-27 18:30 10.59531 -61.34809 33 ft 70 kts 88°
2026-04-27 18:31 10.59538 -61.34132 163 ft 113 kts 95°
2026-04-27 18:31 10.59544 -61.33253 446 ft 140 kts 92°
2026-04-27 18:31 10.59551 -61.32582 717 ft 139 kts 89°
2026-04-27 18:31 10.59558 -61.31603 1310 ft 142 kts 88°
2026-04-27 18:32 10.59570 -61.30618 2018 ft 138 kts 89°
2026-04-27 18:32 10.59579 -61.29641 2657 ft 139 kts 89°
2026-04-27 18:32 10.59362 -61.28707 3211 ft 143 kts 127°
2026-04-27 18:32 10.58131 -61.28237 3983 ft 156 kts 181°
2026-04-27 18:33 10.57449 -61.28544 4388 ft 165 kts 212°
2026-04-27 18:33 10.56597 -61.29376 4927 ft 172 kts 219°
2026-04-27 18:33 10.55760 -61.30245 5505 ft 172 kts 218°
2026-04-27 18:33 10.54901 -61.31101 6065 ft 175 kts 216°
2026-04-27 18:34 10.54018 -61.31971 6626 ft 176 kts 218°
2026-04-27 18:34 10.53138 -61.32836 7196 ft 176 kts 218°
2026-04-27 18:34 10.52244 -61.33716 7702 ft 180 kts 219°
2026-04-27 18:34 10.51347 -61.34600 8280 ft 180 kts 219°
2026-04-27 18:35 10.50436 -61.35497 8786 ft 184 kts 219°
2026-04-27 18:35 10.49525 -61.36391 9345 ft 185 kts 219°
2026-04-27 18:35 10.48582 -61.37322 9924 ft 188 kts 219°
2026-04-27 18:35 10.47654 -61.38240 10417 ft 189 kts 221°
2026-04-27 18:36 10.46972 -61.39399 10938 ft 196 kts 249°
2026-04-27 18:36 10.46796 -61.40768 11507 ft 197 kts 273°
2026-04-27 18:36 10.46945 -61.42154 12033 ft 198 kts 275°
2026-04-27 18:36 10.47095 -61.43538 12617 ft 196 kts 274°
2026-04-27 18:37 10.47240 -61.44919 13108 ft 197 kts 274°
2026-04-27 18:37 10.47385 -61.46299 13637 ft 196 kts 274°
2026-04-27 18:37 10.47531 -61.47692 14120 ft 199 kts 274°
2026-04-27 18:37 10.47678 -61.49073 14695 ft 196 kts 273°
2026-04-27 18:38 10.47823 -61.50456 15221 ft 196 kts 273°
2026-04-27 18:38 10.47968 -61.51827 15777 ft 196 kts 273°
2026-04-27 18:38 10.48114 -61.53208 16269 ft 196 kts 273°
2026-04-27 18:38 10.48258 -61.54581 16797 ft 195 kts 273°
2026-04-27 18:39 10.48403 -61.55954 17316 ft 194 kts 274°
2026-04-27 18:39 10.48546 -61.57320 17823 ft 195 kts 273°
2026-04-27 18:39 10.48691 -61.58694 18325 ft 195 kts 273°
2026-04-27 18:39 10.48834 -61.60056 18771 ft 195 kts 272°
2026-04-27 18:40 10.48978 -61.61434 19173 ft 196 kts 272°
2026-04-27 18:40 10.49123 -61.62803 19622 ft 195 kts 272°
2026-04-27 18:40 10.49266 -61.64173 20032 ft 196 kts 272°
2026-04-27 18:40 10.49410 -61.65542 20487 ft 194 kts 272°
2026-04-27 18:41 10.49553 -61.66906 20893 ft 195 kts 272°
2026-04-27 18:41 10.49694 -61.68258 21322 ft 194 kts 272°
2026-04-27 18:41 10.49838 -61.69621 21742 ft 195 kts 272°
2026-04-27 18:41 10.49981 -61.70994 22143 ft 195 kts 271°
2026-04-27 18:42 10.50125 -61.72357 22576 ft 194 kts 271°
2026-04-27 18:42 10.50221 -61.73283 22839 ft 195 kts 271°
2026-04-27 18:42 10.50411 -61.75097 23390 ft 194 kts 271°
2026-04-27 18:42 10.50554 -61.76464 23731 ft 195 kts 271°
2026-04-27 18:43 10.50697 -61.77838 24036 ft 196 kts 271°
2026-04-27 18:43 10.50841 -61.79206 24381 ft 194 kts 271°
2026-04-27 18:43 10.50984 -61.80576 24740 ft 195 kts 271°
2026-04-27 18:43 10.51127 -61.81948 25112 ft 195 kts 271°
2026-04-27 18:44 10.51270 -61.83314 25502 ft 194 kts 271°
2026-04-27 18:44 10.51412 -61.84684 25851 ft 196 kts 271°
2026-04-27 18:44 10.51558 -61.86109 25975 ft 213 kts 271°
2026-04-27 18:44 10.51688 -61.87672 25989 ft 230 kts 266°
2026-04-27 18:45 10.51710 -61.89358 25993 ft 247 kts 267°
2026-04-27 18:45 10.51750 -61.91159 25991 ft 262 kts 268°
2026-04-27 18:45 10.51793 -61.93046 25987 ft 272 kts 267°
2026-04-27 18:45 10.51833 -61.94997 25986 ft 280 kts 267°
2026-04-27 18:46 10.51872 -61.96996 25982 ft 286 kts 267°
2026-04-27 18:46 10.51912 -61.99030 25985 ft 290 kts 267°
2026-04-27 18:46 10.51953 -62.01060 25981 ft 292 kts 267°
2026-04-27 18:46 10.51994 -62.03154 25982 ft 294 kts 267°
2026-04-27 18:47 10.52035 -62.05216 25986 ft 296 kts 267°
2026-04-27 18:47 10.52076 -62.07309 25985 ft 297 kts 268°
2026-04-27 18:47 10.52117 -62.09408 25988 ft 297 kts 268°
2026-04-27 18:47 10.52158 -62.11512 25987 ft 298 kts 268°
2026-04-27 18:48 10.52199 -62.13619 25988 ft 298 kts 268°
2026-04-27 18:48 10.52240 -62.15729 25984 ft 299 kts 268°
2026-04-27 18:48 10.52280 -62.17840 25987 ft 299 kts 268°
2026-04-27 18:48 10.52320 -62.19949 25987 ft 299 kts 268°
2026-04-27 18:49 10.52361 -62.22062 25988 ft 299 kts 268°
2026-04-27 18:49 10.52401 -62.24174 25987 ft 299 kts 267°
2026-04-27 18:49 10.52441 -62.26287 25987 ft 299 kts 267°
2026-04-27 18:49 10.52481 -62.28402 25988 ft 299 kts 267°
2026-04-27 18:50 10.52521 -62.30516 25988 ft 299 kts 267°
2026-04-27 18:50 10.52560 -62.32629 25987 ft 299 kts 267°
2026-04-27 18:50 10.52600 -62.34743 25987 ft 299 kts 267°
2026-04-27 18:50 10.52639 -62.36858 25987 ft 299 kts 267°
2026-04-27 18:51 10.52679 -62.38974 25987 ft 299 kts 267°
2026-04-27 18:51 10.52718 -62.41086 25985 ft 299 kts 267°
2026-04-27 18:51 10.52757 -62.43201 25986 ft 299 kts 267°
2026-04-27 18:51 10.52795 -62.45315 25986 ft 299 kts 267°
2026-04-27 18:52 10.52834 -62.47431 25986 ft 299 kts 267°
2026-04-27 18:52 10.52873 -62.49543 25984 ft 299 kts 267°
2026-04-27 18:52 10.52911 -62.51658 25984 ft 299 kts 267°
2026-04-27 18:53 10.52988 -62.55886 25985 ft 299 kts 267°
2026-04-27 18:53 10.53026 -62.58001 25985 ft 299 kts 267°
2026-04-27 18:53 10.53063 -62.60119 25985 ft 300 kts 267°
2026-04-27 18:53 10.53101 -62.62234 25985 ft 300 kts 267°
2026-04-27 18:54 10.53139 -62.64349 25986 ft 300 kts 267°
2026-04-27 18:54 10.53176 -62.66464 25982 ft 299 kts 267°
2026-04-27 18:54 10.53213 -62.68554 25983 ft 300 kts 267°
2026-04-27 18:54 10.53250 -62.70670 25983 ft 300 kts 267°
2026-04-27 18:55 10.53287 -62.72786 25983 ft 300 kts 267°
2026-04-27 18:55 10.53325 -62.74931 25983 ft 300 kts 267°
2026-04-27 18:55 10.53361 -62.77019 25986 ft 300 kts 267°
2026-04-27 18:55 10.53397 -62.79134 25986 ft 300 kts 267°
2026-04-27 18:56 10.53434 -62.81252 25986 ft 300 kts 267°
2026-04-27 18:56 10.53470 -62.83369 25987 ft 300 kts 267°
2026-04-27 18:56 10.53506 -62.85486 25986 ft 300 kts 267°
2026-04-27 18:56 10.53542 -62.87604 25986 ft 300 kts 267°
2026-04-27 18:57 10.53578 -62.89724 25986 ft 300 kts 267°
2026-04-27 18:57 10.53615 -62.91842 25985 ft 300 kts 267°
2026-04-27 18:57 10.53650 -62.93956 25986 ft 300 kts 267°
2026-04-27 18:57 10.53685 -62.96076 25986 ft 300 kts 267°
2026-04-27 18:58 10.53721 -62.98193 25987 ft 300 kts 267°
2026-04-27 18:58 10.53744 -62.99596 25983 ft 300 kts 267°
2026-04-27 18:58 10.53791 -63.02430 25994 ft 300 kts 267°
2026-04-27 18:58 10.53826 -63.04549 25992 ft 300 kts 267°
2026-04-27 18:59 10.53861 -63.06669 25992 ft 300 kts 267°
2026-04-27 18:59 10.53896 -63.08789 25992 ft 300 kts 267°
2026-04-27 18:59 10.53930 -63.10907 25992 ft 300 kts 267°
2026-04-27 18:59 10.53965 -63.13027 25990 ft 300 kts 267°
2026-04-27 19:00 10.53999 -63.15147 25991 ft 300 kts 267°
2026-04-27 19:00 10.54033 -63.17267 25992 ft 300 kts 266°
2026-04-27 19:00 10.54067 -63.19388 25993 ft 300 kts 267°
2026-04-27 19:00 10.54100 -63.21479 25992 ft 300 kts 267°
2026-04-27 19:01 10.54134 -63.23599 25992 ft 300 kts 267°
2026-04-27 19:01 10.54168 -63.25717 25991 ft 299 kts 267°
2026-04-27 19:01 10.54202 -63.27829 25990 ft 299 kts 266°
2026-04-27 19:01 10.54234 -63.29945 25990 ft 299 kts 267°
2026-04-27 19:02 10.54267 -63.32063 25991 ft 300 kts 266°
2026-04-27 19:02 10.54300 -63.34182 25990 ft 300 kts 267°
2026-04-27 19:02 10.54334 -63.36302 25990 ft 300 kts 267°
2026-04-27 19:02 10.54366 -63.38423 25986 ft 300 kts 266°
2026-04-27 19:03 10.54399 -63.40540 25991 ft 300 kts 266°
2026-04-27 19:03 10.54431 -63.42658 25988 ft 300 kts 267°
2026-04-27 19:03 10.54463 -63.44778 25987 ft 300 kts 267°
2026-04-27 19:03 10.54485 -63.46179 25988 ft 300 kts 267°
2026-04-27 19:04 10.54528 -63.49013 25988 ft 299 kts 266°
2026-04-27 19:04 10.54559 -63.51123 25993 ft 299 kts 266°
2026-04-27 19:04 10.54591 -63.53231 25993 ft 298 kts 267°
2026-04-27 19:04 10.54622 -63.55330 25992 ft 297 kts 267°
2026-04-27 19:05 10.54653 -63.57430 25992 ft 297 kts 267°
2026-04-27 19:05 10.54684 -63.59528 25990 ft 297 kts 267°
2026-04-27 19:05 10.54715 -63.61626 25989 ft 297 kts 266°
2026-04-27 19:05 10.54746 -63.63721 25989 ft 296 kts 267°
2026-04-27 19:06 10.54776 -63.65785 25988 ft 296 kts 267°
2026-04-27 19:06 10.54806 -63.67877 25991 ft 297 kts 267°
2026-04-27 19:06 10.54836 -63.69974 25990 ft 296 kts 267°
2026-04-27 19:06 10.54867 -63.72068 25991 ft 296 kts 266°
2026-04-27 19:07 10.54897 -63.74161 25988 ft 296 kts 267°
2026-04-27 19:07 10.54927 -63.76252 25988 ft 296 kts 267°
2026-04-27 19:07 10.54956 -63.78340 25987 ft 295 kts 267°
2026-04-27 19:07 10.54985 -63.80425 25988 ft 295 kts 267°
2026-04-27 19:08 10.55015 -63.82507 25987 ft 295 kts 267°
2026-04-27 19:08 10.55044 -63.84587 25985 ft 294 kts 267°
2026-04-27 19:08 10.55072 -63.86667 25985 ft 294 kts 267°
2026-04-27 19:08 10.55102 -63.88746 25986 ft 294 kts 267°
2026-04-27 19:09 10.55130 -63.90827 25985 ft 294 kts 267°
2026-04-27 19:09 10.55159 -63.92904 25987 ft 294 kts 267°
2026-04-27 19:09 10.55187 -63.94983 25987 ft 294 kts 267°
2026-04-27 19:09 10.55215 -63.97060 25987 ft 294 kts 267°
2026-04-27 19:10 10.55243 -63.99136 25984 ft 294 kts 267°
2026-04-27 19:10 10.55271 -64.01210 25985 ft 294 kts 267°
2026-04-27 19:10 10.55299 -64.03287 25985 ft 294 kts 267°
2026-04-27 19:10 10.55317 -64.04661 25985 ft 294 kts 267°
2026-04-27 19:11 10.55354 -64.07435 25988 ft 294 kts 268°
2026-04-27 19:11 10.55382 -64.09511 25989 ft 293 kts 267°
2026-04-27 19:11 10.55409 -64.11583 25983 ft 293 kts 267°
2026-04-27 19:11 10.55436 -64.13656 25983 ft 293 kts 267°
2026-04-27 19:12 10.55463 -64.15699 25983 ft 293 kts 267°
2026-04-27 19:12 10.55490 -64.17771 25985 ft 293 kts 267°
2026-04-27 19:12 10.55516 -64.19842 25985 ft 293 kts 267°
2026-04-27 19:12 10.55543 -64.21914 25985 ft 293 kts 267°
2026-04-27 19:13 10.55569 -64.23989 25986 ft 294 kts 267°
2026-04-27 19:13 10.55595 -64.26065 25982 ft 294 kts 267°
2026-04-27 19:13 10.55622 -64.28138 25983 ft 294 kts 267°
2026-04-27 19:13 10.55648 -64.30215 25983 ft 293 kts 267°
2026-04-27 19:14 10.55674 -64.32287 25983 ft 293 kts 267°
2026-04-27 19:14 10.55699 -64.34359 25982 ft 293 kts 267°
2026-04-27 19:14 10.55725 -64.36433 25980 ft 293 kts 267°
2026-04-27 19:14 10.55751 -64.38501 25980 ft 293 kts 267°
2026-04-27 19:15 10.55776 -64.40572 25978 ft 293 kts 268°
2026-04-27 19:15 10.55801 -64.42648 25977 ft 293 kts 268°
2026-04-27 19:15 10.55826 -64.44719 25977 ft 294 kts 268°
2026-04-27 19:15 10.55851 -64.46795 25977 ft 294 kts 268°
2026-04-27 19:16 10.55876 -64.48870 25975 ft 294 kts 268°
2026-04-27 19:16 10.55884 -64.49571 25975 ft 294 kts 268°
2026-04-27 19:16 10.55925 -64.53022 25978 ft 294 kts 268°
2026-04-27 19:16 10.55950 -64.55098 25978 ft 294 kts 268°
2026-04-27 19:17 10.55974 -64.57173 25978 ft 294 kts 268°
2026-04-27 19:17 10.55998 -64.59248 25978 ft 294 kts 268°
2026-04-27 19:17 10.56022 -64.61325 25975 ft 294 kts 268°
2026-04-27 19:17 10.56046 -64.63400 25975 ft 294 kts 268°
2026-04-27 19:18 10.56070 -64.65479 25975 ft 294 kts 268°
2026-04-27 19:18 10.56093 -64.67554 25975 ft 294 kts 268°
2026-04-27 19:18 10.56117 -64.69630 25975 ft 294 kts 268°
2026-04-27 19:18 10.56140 -64.71703 25975 ft 294 kts 268°
2026-04-27 19:19 10.56163 -64.73779 25975 ft 294 kts 268°
2026-04-27 19:19 10.56186 -64.75854 25975 ft 294 kts 268°
2026-04-27 19:19 10.56209 -64.77932 25975 ft 294 kts 268°
2026-04-27 19:19 10.56232 -64.80006 25975 ft 294 kts 268°
2026-04-27 19:20 10.56255 -64.82082 25976 ft 294 kts 268°
2026-04-27 19:20 10.56278 -64.84157 25976 ft 294 kts 268°
2026-04-27 19:20 10.56300 -64.86232 25976 ft 294 kts 268°
2026-04-27 19:20 10.56322 -64.88309 25976 ft 294 kts 268°
2026-04-27 19:21 10.56344 -64.90383 25976 ft 294 kts 268°
2026-04-27 19:21 10.56366 -64.92461 25973 ft 294 kts 268°
2026-04-27 19:21 10.56388 -64.94535 25973 ft 294 kts 268°
2026-04-27 19:21 10.56410 -64.96613 25973 ft 294 kts 268°
2026-04-27 19:22 10.56431 -64.98688 25979 ft 294 kts 267°
2026-04-27 19:22 10.56453 -65.00738 25978 ft 294 kts 267°
2026-04-27 19:22 10.56467 -65.02138 25978 ft 294 kts 267°
2026-04-27 19:22 10.56488 -65.04209 25978 ft 293 kts 267°
2026-04-27 19:23 10.56509 -65.06285 25978 ft 293 kts 267°
2026-04-27 19:23 10.56536 -65.09036 25779 ft 301 kts 267°
2026-04-27 19:23 10.56556 -65.11204 25441 ft 310 kts 268°
2026-04-27 19:23 10.56571 -65.12692 25219 ft 314 kts 268°
2026-04-27 19:24 10.56595 -65.14932 24891 ft 319 kts 268°
2026-04-27 19:24 10.56618 -65.17198 24566 ft 321 kts 268°
2026-04-27 19:24 10.56640 -65.19459 24240 ft 319 kts 268°
2026-04-27 19:24 10.56662 -65.21709 23916 ft 318 kts 268°
2026-04-27 19:25 10.56683 -65.23955 23593 ft 317 kts 268°
2026-04-27 19:25 10.56705 -65.26195 23212 ft 317 kts 268°
2026-04-27 19:25 10.56726 -65.28429 22830 ft 316 kts 268°
2026-04-27 19:25 10.56747 -65.30661 22449 ft 315 kts 268°
2026-04-27 19:26 10.56768 -65.32890 22077 ft 315 kts 268°
2026-04-27 19:26 10.56788 -65.35110 21710 ft 314 kts 268°
2026-04-27 19:26 10.56808 -65.37302 21351 ft 314 kts 268°
2026-04-27 19:26 10.56829 -65.39521 20992 ft 314 kts 268°
2026-04-27 19:27 10.56849 -65.41736 20638 ft 313 kts 268°
2026-04-27 19:27 10.56869 -65.43949 20286 ft 313 kts 268°
2026-04-27 19:27 10.56888 -65.46156 19932 ft 312 kts 268°
2026-04-27 19:27 10.56908 -65.48362 19597 ft 312 kts 268°
2026-04-27 19:28 10.56927 -65.50563 19255 ft 311 kts 268°
2026-04-27 19:28 10.56946 -65.52756 18921 ft 311 kts 268°
2026-04-27 19:28 10.56965 -65.54951 18589 ft 310 kts 268°
2026-04-27 19:28 10.56984 -65.57137 18258 ft 309 kts 268°
2026-04-27 19:29 10.57002 -65.59321 17879 ft 309 kts 268°
2026-04-27 19:29 10.57021 -65.61503 17500 ft 309 kts 268°
2026-04-27 19:29 10.57039 -65.63681 17126 ft 308 kts 268°
2026-04-27 19:29 10.57057 -65.65842 16972 ft 301 kts 268°
2026-04-27 19:30 10.57076 -65.67939 16966 ft 293 kts 267°
2026-04-27 19:30 10.57092 -65.69956 16960 ft 288 kts 267°
2026-04-27 19:30 10.57107 -65.71980 16956 ft 285 kts 267°
2026-04-27 19:30 10.57123 -65.73988 16956 ft 283 kts 267°
2026-04-27 19:31 10.57139 -65.76009 16954 ft 282 kts 267°
2026-04-27 19:31 10.57155 -65.77998 16954 ft 281 kts 267°
2026-04-27 19:31 10.57170 -65.79951 16954 ft 281 kts 267°
2026-04-27 19:31 10.57186 -65.81934 16948 ft 280 kts 267°
2026-04-27 19:32 10.57201 -65.83913 16954 ft 280 kts 267°
2026-04-27 19:32 10.57216 -65.85892 16955 ft 280 kts 267°
2026-04-27 19:32 10.57231 -65.87871 16952 ft 280 kts 267°
2026-04-27 19:32 10.57246 -65.89851 16952 ft 280 kts 267°
2026-04-27 19:33 10.57261 -65.91855 16952 ft 280 kts 267°
2026-04-27 19:33 10.57270 -65.93164 16950 ft 280 kts 267°
2026-04-27 19:33 10.57289 -65.95785 16955 ft 280 kts 267°
2026-04-27 19:33 10.57304 -65.97766 16956 ft 280 kts 267°
2026-04-27 19:34 10.57319 -65.99745 16955 ft 280 kts 267°
2026-04-27 19:34 10.57333 -66.01726 16953 ft 280 kts 267°
2026-04-27 19:34 10.57409 -66.03702 16951 ft 281 kts 276°
2026-04-27 19:34 10.57962 -66.05608 16955 ft 284 kts 292°
2026-04-27 19:35 10.58999 -66.07323 16965 ft 285 kts 304°
2026-04-27 19:35 10.60165 -66.08949 16968 ft 286 kts 304°
2026-04-27 19:35 10.61340 -66.10596 16970 ft 287 kts 303°
2026-04-27 19:35 10.62511 -66.12245 16968 ft 288 kts 303°
2026-04-27 19:36 10.63686 -66.13897 16973 ft 288 kts 304°
2026-04-27 19:36 10.64862 -66.15550 16969 ft 288 kts 304°
2026-04-27 19:36 10.66037 -66.17201 16971 ft 288 kts 304°
2026-04-27 19:36 10.67210 -66.18850 16970 ft 288 kts 303°
2026-04-27 19:37 10.68386 -66.20503 16971 ft 288 kts 304°
2026-04-27 19:37 10.69561 -66.22156 16969 ft 289 kts 303°
2026-04-27 19:37 10.70737 -66.23810 16969 ft 289 kts 304°
2026-04-27 19:37 10.71915 -66.25467 16965 ft 288 kts 304°
2026-04-27 19:38 10.73091 -66.27119 16969 ft 289 kts 303°
2026-04-27 19:38 10.74276 -66.28784 16806 ft 294 kts 303°
2026-04-27 19:38 10.75492 -66.30494 16475 ft 303 kts 303°
2026-04-27 19:38 10.76734 -66.32239 16205 ft 306 kts 304°
2026-04-27 19:39 10.77980 -66.33989 15991 ft 305 kts 304°
2026-04-27 19:39 10.79225 -66.35739 15777 ft 305 kts 304°
2026-04-27 19:39 10.80326 -66.37559 15562 ft 301 kts 291°
2026-04-27 19:39 10.80951 -66.39582 15354 ft 298 kts 277°
2026-04-27 19:40 10.81073 -66.41673 15146 ft 295 kts 262°
2026-04-27 19:40 10.80771 -66.43720 14946 ft 292 kts 256°
2026-04-27 19:40 10.80415 -66.45758 14741 ft 293 kts 256°
2026-04-27 19:40 10.80064 -66.47802 14537 ft 294 kts 257°
2026-04-27 19:41 10.79712 -66.49854 14328 ft 294 kts 257°
2026-04-27 19:41 10.79364 -66.51874 14139 ft 294 kts 256°
2026-04-27 19:41 10.79008 -66.53927 13937 ft 295 kts 256°
2026-04-27 19:41 10.78649 -66.56006 13728 ft 295 kts 256°
2026-04-27 19:42 10.78300 -66.58024 13505 ft 292 kts 257°
2026-04-27 19:42 10.77951 -66.60051 13279 ft 290 kts 257°
2026-04-27 19:42 10.77602 -66.62067 13051 ft 289 kts 257°
2026-04-27 19:42 10.77253 -66.64078 12829 ft 289 kts 257°
2026-04-27 19:43 10.76902 -66.66100 12601 ft 291 kts 257°
2026-04-27 19:43 10.76549 -66.68138 12383 ft 294 kts 257°
2026-04-27 19:43 10.76193 -66.70193 12168 ft 297 kts 257°
2026-04-27 19:43 10.75836 -66.72260 12017 ft 296 kts 257°
2026-04-27 19:44 10.75488 -66.74279 12015 ft 284 kts 257°
2026-04-27 19:44 10.75151 -66.76224 12009 ft 277 kts 257°
2026-04-27 19:44 10.74817 -66.78139 12008 ft 273 kts 256°
2026-04-27 19:44 10.74489 -66.80026 12013 ft 271 kts 256°
2026-04-27 19:45 10.74161 -66.81912 12012 ft 270 kts 256°
2026-04-27 19:45 10.73834 -66.83791 12014 ft 269 kts 256°
2026-04-27 19:45 10.73509 -66.85663 12016 ft 269 kts 256°
2026-04-27 19:45 10.73184 -66.87530 12018 ft 268 kts 256°
2026-04-27 19:46 10.72860 -66.89397 12018 ft 267 kts 256°
2026-04-27 19:46 10.72735 -66.91282 12022 ft 269 kts 268°
2026-04-27 19:46 10.72744 -66.92415 12022 ft 269 kts 266°
2026-04-27 19:47 10.72746 -66.93370 12023 ft 270 kts 265°
2026-04-27 19:47 10.72738 -66.95278 12024 ft 270 kts 266°
2026-04-27 19:47 10.72732 -66.97198 11813 ft 277 kts 266°
2026-04-27 19:48 10.72727 -66.99191 11439 ft 287 kts 265°
2026-04-27 19:48 10.72725 -67.01240 11071 ft 292 kts 266°
2026-04-27 19:48 10.72702 -67.03299 10702 ft 290 kts 262°
2026-04-27 19:48 10.72498 -67.05327 10333 ft 290 kts 265°
2026-04-27 19:49 10.72538 -67.07376 9973 ft 290 kts 271°
2026-04-27 19:49 10.72642 -67.09426 9579 ft 290 kts 269°
2026-04-27 19:49 10.72659 -67.11478 9175 ft 290 kts 266°
2026-04-27 19:49 10.72642 -67.13521 8780 ft 288 kts 267°
2026-04-27 19:50 10.72648 -67.15557 8382 ft 288 kts 267°
2026-04-27 19:50 10.72669 -67.17589 7994 ft 286 kts 266°
2026-04-27 19:50 10.72685 -67.19559 7605 ft 269 kts 266°
2026-04-27 19:50 10.72696 -67.21403 7213 ft 254 kts 266°
2026-04-27 19:51 10.72703 -67.23145 6836 ft 242 kts 267°
2026-04-27 19:51 10.72711 -67.24837 6452 ft 233 kts 268°
2026-04-27 19:51 10.72720 -67.26458 6055 ft 226 kts 268°
2026-04-27 19:51 10.72729 -67.28038 5655 ft 221 kts 267°
2026-04-27 19:52 10.72737 -67.29580 5249 ft 217 kts 268°
2026-04-27 19:52 10.72743 -67.30597 4998 ft 215 kts 268°
2026-04-27 19:52 10.72753 -67.32614 4494 ft 211 kts 268°
2026-04-27 19:52 10.72761 -67.34073 4110 ft 208 kts 269°
2026-04-27 19:53 10.72596 -67.36857 3978 ft 194 kts 249°
2026-04-27 19:53 10.71927 -67.38045 3976 ft 194 kts 226°
2026-04-27 19:53 10.70866 -67.38882 3983 ft 194 kts 204°
2026-04-27 19:54 10.69574 -67.39250 3990 ft 193 kts 186°
2026-04-27 19:54 10.68245 -67.39410 3990 ft 191 kts 182°
2026-04-27 19:54 10.66940 -67.39196 3994 ft 192 kts 159°
2026-04-27 19:54 10.65810 -67.38482 3993 ft 193 kts 136°
2026-04-27 19:55 10.65038 -67.37378 3992 ft 192 kts 116°
2026-04-27 19:55 10.64460 -67.36150 3988 ft 193 kts 117°
2026-04-27 19:55 10.63873 -67.34919 3991 ft 194 kts 117°
2026-04-27 19:55 10.63286 -67.33680 3987 ft 194 kts 116°
2026-04-27 19:56 10.62700 -67.32445 3990 ft 194 kts 117°
2026-04-27 19:56 10.62114 -67.31208 3989 ft 194 kts 116°
2026-04-27 19:56 10.61528 -67.29973 3987 ft 195 kts 116°
2026-04-27 19:56 10.60938 -67.28729 3986 ft 196 kts 116°
2026-04-27 19:57 10.60344 -67.27479 3989 ft 197 kts 116°
2026-04-27 19:57 10.59771 -67.26217 3982 ft 196 kts 109°
2026-04-27 19:57 10.59601 -67.24852 3986 ft 195 kts 89°
2026-04-27 19:57 10.59652 -67.23476 3985 ft 195 kts 89°
2026-04-27 19:58 10.59697 -67.22101 3982 ft 195 kts 89°
2026-04-27 19:58 10.59742 -67.20728 3989 ft 193 kts 89°
2026-04-27 19:58 10.59786 -67.19353 3880 ft 198 kts 89°
2026-04-27 19:58 10.59832 -67.17946 3677 ft 205 kts 88°
2026-04-27 19:59 10.59881 -67.16461 3460 ft 209 kts 87°
2026-04-27 19:59 10.59929 -67.14971 3221 ft 212 kts 87°
2026-04-27 19:59 10.59979 -67.13466 2967 ft 213 kts 87°
2026-04-27 19:59 10.60028 -67.11964 2699 ft 211 kts 87°
2026-04-27 20:00 10.60075 -67.10527 2428 ft 196 kts 88°
2026-04-27 20:00 10.60118 -67.09187 2149 ft 184 kts 88°
2026-04-27 20:00 10.60158 -67.07919 1954 ft 172 kts 88°
2026-04-27 20:00 10.60190 -67.06748 1590 ft 160 kts 89°
2026-04-27 20:01 10.60212 -67.05667 1289 ft 143 kts 88°
2026-04-27 20:01 10.60254 -67.04711 1068 ft 128 kts 87°
2026-04-27 20:01 10.60296 -67.03833 833 ft 122 kts 88°
2026-04-27 20:01 10.60299 -67.03028 600 ft 103 kts 86°
2026-04-27 20:02 10.60317 -67.02347 362 ft 97 kts 77°
2026-04-27 20:02 10.60364 -67.01574 323 ft 119 kts 81°
2026-04-27 20:02 10.60389 -67.00755 243 ft 109 kts 79°
2026-04-27 20:02 10.60432 -67.00060 196 ft 83 kts 87°
2026-04-27 20:03 10.60421 -66.99707 189 ft 16 kts 99°
2026-04-27 20:03 10.60346 -66.99679 185 ft 12 kts 180°
2026-04-27 20:03 10.60278 -66.99678 180 ft 11 kts 178°
2026-04-27 20:03 10.60205 -66.99676 180 ft 9 kts 179°
2026-04-27 20:04 10.60134 -66.99674 178 ft 13 kts 178°
2026-04-27 20:04 10.60041 -66.99671 171 ft 16 kts 179°
2026-04-27 20:04 10.59966 -66.99670 166 ft 0 kts 179°
2026-04-27 20:04 10.59962 -66.99670 166 ft 3 kts 179°
2026-04-27 20:05 10.59894 -66.99685 164 ft 8 kts 232°
2026-04-27 20:05 10.59840 -66.99731 162 ft 15 kts 165°
2026-04-27 20:05 10.59814 -66.99643 164 ft 15 kts 93°
2026-04-27 20:05 10.59803 -66.99586 165 ft 2 kts 104°
2026-04-27 20:06 10.59803 -66.99585 165 ft 0 kts 104°
2026-04-27 20:06 10.59802 -66.99583 165 ft 2 kts 104°
2026-04-27 20:06 10.59773 -66.99577 166 ft 10 kts 203°
2026-04-27 20:06 10.59738 -66.99590 166 ft 2 kts 164°
2026-04-27 20:07 10.59733 -66.99583 166 ft 0 kts 112°